Regional Weather Roundup
Issued by NWS

Home | Current Version | Previous Version | Graphics & Text | Print | Product List | Glossary On
Versions: 1 2 3 4 5 6 7 8 9 10 11 12 13 14 15 16 17 18 19 20 21 22 23 24 25 26 27 28 29 30 31 32 33 34 35 36 37 38 39 40 41 42 43 44 45 46 47 48 49 50
000
ASUS43 KMPX 281201
RWRMN
WEATHER ROUNDUP FOR MINNESOTA
NATIONAL WEATHER SERVICE TWIN CITIES/CHANHASSEN MN
600 AM CST TUE FEB 28 2017


NOTE: "FAIR" INDICATES FEW OR NO CLOUDS BELOW 12,000 FEET WITH NO
SIGNIFICANT WEATHER AND/OR OBSTRUCTIONS TO VISIBILITY. N/A MEANS
CURRENT SKY AND/OR WEATHER CONDITIONS ARE NOT AVAILABLE.

MNZ060>063-068>070-281300-
   Twin Cities Metro

CITY           SKY/WX    TMP DP  RH WIND       PRES   REMARKS
TWIN CITIES    CLOUDY    38  30  73 N8        29.74R
6HR MIN TEMP:  35; 6HR MAX TEMP:  39;

ST PAUL        CLOUDY    38  32  79 N8        29.76R
CRYSTAL        CLOUDY    36  27  69 NE6       29.74R
BLAINE         CLOUDY    37  30  75 NE6       29.75R
LAKEVILLE      CLOUDY    34  34 100 N5        29.73R WCI  30
EDEN PRAIRIE   CLOUDY    37  29  72 NE9       29.72R
6HR MIN TEMP:  35; 6HR MAX TEMP:  39;

SOUTH ST PAUL  CLOUDY    39  32  76 N6        29.74R
LAKE ELMO      MOCLDY    36  32  87 N8        29.76R
$$
MNZ001>005-007-008-013>017-022>024-027-028-281300-
   Northwest Minnesota

CITY           SKY/WX    TMP DP  RH WIND       PRES   REMARKS
BEMIDJI        CLOUDY    21  15  78 N8        29.81F WCI  12
HALLOCK        CLEAR      5   0  78 N8        29.96S WCI  -8
ROSEAU         CLEAR      0  -6  78 N9        29.94S WCI -16
WARROAD        CLEAR      7   3  85 N9        29.94S WCI  -7
CROOKSTON      CLOUDY    19  16  86 NE8       29.91S WCI   9
FOSSTON        CLOUDY    16  12  86 N13       29.85F WCI   2
DETROIT LAKES  CLOUDY    25  19  80 NE6       29.80R WCI  18
MOORHEAD       CLOUDY    19  18  93 N15       29.83F WCI   5
PARK RAPIDS    CLOUDY    25  15  66 NE10      29.77F WCI  15
MAHNOMEN       FAIR      19  16  89 NE13      29.82S WCI   6
$$
MNZ006-009>011-018-025>026-281300-
   North Central Minnesota

CITY           SKY/WX    TMP DP  RH WIND       PRES   REMARKS
BAUDETTE       CLOUDY    17  12  80 NE7       29.90R WCI   8
FLAG ISLAND    CLEAR      7   1  78 N8        29.95R WCI  -6
INTL FALLS     CLOUDY    20  15  81 NE6       29.89S WCI  12
6HR MIN TEMP:  20; 6HR MAX TEMP:  23; 6HR PCP:  0.01;

WASKISH        CLOUDY    21  18  86 NE7       29.87S WCI  13
BIG FORK       CLOUDY    25  19  80 N8        29.84R WCI  16
LONGVILLE      MOCLDY    27  19  74 N7        29.79S WCI  19
GRAND RAPIDS   CLOUDY    26  21  81 N9        29.81S WCI  17
CRANE LAKE     CLOUDY    21  18  86 CALM      29.89S
ORR            CLOUDY    21  18  86 CALM      29.83R
COOK           CLOUDY    23  21  93 NE5       29.83S WCI  17
WALKER         FAIR      22  18  83 N6        29.80S WCI  15
$$
MNZ012-019>021-037-281300-
   Northeast Minnesota

CITY           SKY/WX    TMP DP  RH WIND       PRES   REMARKS
DULUTH         LGT SNOW  29  27  92 E8        29.78F FOG     WCI  21
6HR MIN TEMP:  24; 6HR MAX TEMP:  29; 6HR PCP:  0.05;

ELY            CLOUDY    25  23  93 NE3       29.82S
HIBBING        CLOUDY    27  25  92 N8        29.79S WCI  19
EVELETH        CLOUDY    30  28  90 NE5       29.80S WCI  25
DULUTH HARBOR  MIX PCPN  32  30  93 CALM      29.83F
TWO HARBORS    LGT SNOW  30  27  86 NE3       29.78F
SILVER BAY     CLOUDY    28  28 100 CALM      29.80S
GRAND MARAIS     N/A     30  28  92 NE5       29.86S WCI  25
G MARAIS ARPRT LGT SNOW  21  18  86 N3        29.81S
$$
MNZ029>031-032-039>041-046>048-054>057-064-281300-
   West Central Minnesota

CITY           SKY/WX    TMP DP  RH WIND       PRES   REMARKS
FERGUS FALLS   CLOUDY    27  19  74 NE5       29.82R WCI  21
WHEATON        CLOUDY    25  21  86 NW12      29.81R WCI  14
MORRIS         LGT SNOW  28  28 100 NW12      29.75R WCI  18
ALEXANDRIA     CLOUDY    33  30  88 NE6       29.74R WCI  28
ELBOW LAKE     CLOUDY    28  25  87 NE8       29.77R WCI  20
WADENA         CLOUDY    27  19  74 NE7       29.76S WCI  19
GLENWOOD       PTCLDY    32  30  93 NE5       29.74R WCI  27
APPLETON       LGT SNOW  30  28  93 NW7       29.75S WCI  23
BENSON         LGT SNOW  36  30  80 CALM      29.76R
ORTONVILLE     LGT SNOW  27  23  86 N10       29.76S WCI  17
MADISON        LGT SNOW  30  30 100 NW10      29.76R WCI  21
WILLMAR        FAIR      34  30  86 NE6       29.75R WCI  29
$$
MNZ033>034-036-042>043-049>051-058-059-281300-
   Central Minnesota

CITY           SKY/WX    TMP DP  RH WIND       PRES   REMARKS
ST CLOUD       CLOUDY    34  28  79 NE5       29.75S WCI  30
6HR MIN TEMP:  32; 6HR MAX TEMP:  35;

SAUK CENTRE    CLOUDY    32  31  96 NE3       29.74S FOG
PAYNESVILLE    CLOUDY    33  30  90 NE5       29.75R WCI  28
AITKIN         CLOUDY    32  27  80 NE5       29.75S WCI  27
PINE RIVER     CLOUDY    27  21  80 N12       29.81S WCI  16
BRAINERD       CLOUDY    30  27  88 N5        29.76S WCI  25
STAPLES        CLOUDY    28  23  80 N6        29.76S WCI  22
LONG PRAIRIE   CLOUDY    32  30  93 NW3       29.75R
LITTLE FALLS   CLOUDY    32  30  93 CALM      29.75F FOG
LITCHFIELD     PTCLDY    34  30  86 NE6       29.74S WCI  29
BUFFALO        MOCLDY    34  28  79 NE8       29.76R WCI  27
MAPLE LAKE     CLOUDY    34  30  86 N5        29.75S WCI  30
HUTCHINSON     PTCLDY    34  31  90 N9        29.74R WCI  26
$$
MNZ037-044-045-052-053-281300-
   East Central Minnesota

CITY           SKY/WX    TMP DP  RH WIND       PRES   REMARKS
PRINCETON      CLOUDY    34  28  80 NE5       29.76S WCI  30
MORA           PTCLDY    32  28  86 CALM      29.79S
CAMBRIDGE      CLOUDY    36  27  69 NE5       29.75R
RUSH CITY      CLOUDY    32  28  84 NE6       29.78R WCI  27
MOOSE LAKE     CLOUDY    30  28  93 CALM      29.77F FOG
HINCKLEY       CLOUDY    32  28  86 NE3       29.78S
CLOQUET        LGT SNOW  28  27  93 SE3       29.79R
MCGREGOR       CLOUDY    30  30 100 E3        29.78R
$$
MNZ071>073-080-081-089-090-097-098-281300-
   Southwest Minnesota

CITY           SKY/WX    TMP DP  RH WIND       PRES   REMARKS
MONTEVIDEO     CLOUDY    34  30  86 NE7       29.76S WCI  28
GRANITE FALLS  CLOUDY    33  31  91 N6        29.75R WCI  28
CANBY          LGT SNOW  30  29  96 CALM      29.76R
MARSHALL       CLOUDY    31  29  92 NW8       29.75R WCI  23
REDWOOD FALLS  CLOUDY    34  29  82 N6        29.73R WCI  29
OLIVIA         CLOUDY    34  32  93 N6        29.72R WCI  29
PIPESTONE      CLOUDY    32  28  86 E10G16    29.68R WCI  24
WINDOM         CLOUDY    30  30 100 N8        29.70R FOG     WCI  23
WORTHINGTON    CLOUDY    30  30 100 N17       29.68R FOG     WCI  18
JACKSON        CLEAR     32  30  93 VRB6      29.69R WCI  26
TRACY          CLOUDY    32  31  98 N7        29.73R FOG     WCI  26
SLAYTON        CLOUDY    30  29  97 N10       29.71R FOG     WCI  21
$$
MNZ065>067-074>077-082>085-091>093-281300-
   South Central Minnesota

CITY           SKY/WX    TMP DP  RH WIND       PRES   REMARKS
MANKATO          N/A     34  32  92 N7        29.71R WCI  28
NEW ULM        CLOUDY    34  28  80 NE7       29.72R WCI  28
ST JAMES       CLOUDY    32  30  93 CALM      29.71R
FAIRMONT       CLEAR     29  27  92 CALM      29.68R
GLENCOE        CLOUDY    35  32  90 CALM      29.72S
FARIBAULT      CLOUDY    30  30 100 CALM      29.71R
OWATONNA       PTCLDY    37  32  81 SE7       29.69R
WASECA         MOCLDY    36  32  87 E7        29.70R
ALBERT LEA     CLOUDY    37  34  87 SE8       29.68R
$$
MNZ078>079-086>088-094>096-281300-
   Southeast Minnesota

CITY           SKY/WX    TMP DP  RH WIND       PRES   REMARKS
ROCHESTER      CLOUDY    37  35  92 SE15      29.69S
6HR MIN TEMP:  36; 6HR MAX TEMP:  38; 6HR PCP: TRACE;

RED WING       CLOUDY    39  32  75 CALM      29.71S
STANTON        CLOUDY    34  31  89 N3        29.70R
WINONA         PTCLDY    37  36  93 S5        29.74R
AUSTIN         CLOUDY    36  34  93 SE9       29.68F
PRESTON        CLOUDY    37  35  90 E8        29.70F
$$
ABBREVIATIONS USED IN REMARKS
   TC - TEMPERATURES IN CELSIUS
  WCI - WIND CHILL INDEX
   HX - HEAT INDEX
  VSB - VISIBILITY
$$



USA.gov is the U.S. government's official web portal to all federal, state and local government web resources and services.